Showing default

GONETS D1 1, 23787

Orbit data source: Space-Track

GONETS D1 1, 23787 is a payload satellite owned by Gonets (CIS) in LEO that was launched on Mon, 19 Feb 1996 UTC via a TSIKLON-3 launch vehicle from the Plesetsk Missile And Space Complex (PKMTR). Payloads include a variety of satellites, spacecraft, and rockets equipped with specific instruments for various scientific and technological missions. These include communications satellites like Starlink; space stations such as the ISS; scientific satellites like the Hubble; Earth observation satellites from companies like Planet Labs, Umbra, and HawkEye 360; GPS; miniature CubeSats for education and research; and military/defense satellites.

Loading next visibility...
GONETS D1 1 details
Identifier
23787, 1996-009A
Orbit
LEO
Last TLE update5 hours ago
Origin
Flag of CISGonets (CIS)
ManufacturerNPO PM
MissionNon-operational Civil Communications
Bus & MotorSTRELA-3, Unknown motor
Mass225 kg wet, 225 kg dry
Launch date (UTC)
1996-02-19 (29 years ago)
Launch vehicle
TSIKLON-3
Launch site
Plesetsk Missile And Space Complex (PKMTR)
Object type
Payload
Rocket body
Debris
Shape & HBRCyl + 1 Ant, 7 m
Radar Cross Section1.798 m², Medium (>0.1 m² and < 1m²)

Expand to show TLE details & history

TLE from 5 hours ago
0 GONETS D1 1
1 23787U 96009A   24361.58966187  .00000021  00000-0  55107-4 0  9992
2 23787  82.5769 283.1317 0010774 179.2907 354.6768 12.64088022331385
Epoch: 2024-12-26T14:09Z
Definitive object data (Epoch: 2024-12-26T14:09:06.785Z)
Latitude5.91867°
Longitude154.51647°
Altitude1,399.926 km
Speed7.164 km/s
True Right ascension06h 49m 26s
True Declination5° 53' 11"
Sunlit
Object was in full shadow at TLE epoch
Visualization TLE readout
Latitude41.19195°
Longitude-18.33186°
Altitude1,418.116 km
Speed7.153 km/s
Apparent Right ascension22h 07m 51s
Apparent Declination35° 34' 14"
Sunlit
Object is in daylight
Visualization observer readout
Local Sidereal Time18:31:44
Azimuth78.029° E
Elevation47.709°
Doppler factor1
Orbital elements
Apogee altitude1,411.818 km
Perigee altitude1,395.051 km
Semi-major axis7,781.572 km
Eccentricity0.0010774
Inclination82.5769°
RAAN283.1317°
Arg. of periapsis179.2907°
True anomaly354.66533°
Mean anomaly354.6768°
Eccentric anomaly354.67107°
Mean motion3.16186 °/min
BSTAR0.000055107
Orbital period113.86 mins
Loading maneuver chart data...
Loading historical data...
Loading historical data...
Loading historical data...
Loading historical data...
Loading historical data...
Loading historical data...
Loading historical data...

GONETS D1 1 Visibility forecast

Observer location: undefined°, undefined

Span
Click to sort rows by Start time (UTC) header in descending order
Start Az.
Max El. time (UTC)
Max El. Az.
Max El.
End time (UTC)
End Az.
7 mins2024-12-26 19:09:07.923Z78.519° E2024-12-26 19:09:07.923Z78.519° E36.472°2024-12-26 19:16:07.923Z19.372° NNE
12 mins2024-12-26 20:58:07.923Z233.262° WSW2024-12-26 21:03:07.923Z281.166° WNW29.67°2024-12-26 21:10:07.923Z347.807° N
9 mins2024-12-27 05:04:07.923Z31.374° NE2024-12-27 05:08:07.923Z64.042° ENE17.556°2024-12-27 05:13:07.923Z103.034° ESE
15 mins2024-12-27 06:57:07.923Z351.587° N2024-12-27 07:04:07.923Z240.907° WSW44.952°2024-12-27 07:12:07.923Z176.462° S
6 mins2024-12-27 08:55:07.923Z302.545° NW2024-12-27 08:57:07.923Z286.779° WNW14.808°2024-12-27 09:01:07.923Z255.79° W
8 mins2024-12-27 17:53:07.923Z106.821° ESE2024-12-27 17:57:07.923Z74.852° E16.478°2024-12-27 18:01:07.923Z44.47° NE
|